This is the latest recevied weather packets stored in our database for station/object N8QQQ. If no packets are shown the sender has not sent any weather packets the latest 10 day(s).
| Time | Temp. | Humidity | Pressure | Rain* | Wind** | Luminosity | Snow |
|---|---|---|---|---|---|---|---|
| 1778104143 | 4.44° C | 50% | 1011.5 hPa | 0 mm | - | 66 W/m² | - |
| 1778103840 | 4.44° C | 51% | 1011.7 hPa | 0 mm | - | 63 W/m² | - |
| 1778103537 | 4.44° C | 50% | 1011.6 hPa | 0 mm | - | 70 W/m² | - |
| 1778103235 | 3.89° C | 50% | 1011.7 hPa | 0 mm | - | 73 W/m² | - |
| 1778102932 | 4.44° C | 50% | 1011.5 hPa | 0 mm | - | 72 W/m² | - |
| 1778102628 | 3.89° C | 50% | 1011.5 hPa | 0 mm | - | 76 W/m² | - |
| 1778102323 | 3.89° C | 50% | 1011.7 hPa | 0 mm | - | 89 W/m² | - |
| 1778102019 | 3.89° C | 50% | 1011.7 hPa | 0 mm | - | 88 W/m² | - |
| 1778101716 | 3.89° C | 50% | 1011.8 hPa | 0 mm | - | 87 W/m² | - |
| 1778101413 | 4.44° C | 50% | 1011.6 hPa | 0 mm | - | 104 W/m² | - |
| 1778101111 | 3.89° C | 52% | 1011.7 hPa | 0 mm | - | 91 W/m² | - |
| 1778100806 | 3.89° C | 53% | 1011.8 hPa | 0 mm | - | 81 W/m² | - |
| 1778100503 | 3.89° C | 53% | 1011.5 hPa | 0 mm | - | 94 W/m² | - |
| 1778100201 | 3.89° C | 54% | 1011.7 hPa | 0 mm | - | 102 W/m² | - |
| 1778099898 | 3.89° C | 54% | 1011.8 hPa | 0 mm | - | 80 W/m² | - |
| 1778099595 | 3.89° C | 56% | 1011.8 hPa | 0 mm | - | 67 W/m² | - |
| 1778099292 | 3.33° C | 57% | 1011.7 hPa | 0 mm | - | 63 W/m² | - |
| 1778098989 | 3.33° C | 56% | 1011.8 hPa | 0 mm | - | 67 W/m² | - |
| 1778098685 | 3.33° C | 56% | 1011.9 hPa | 0 mm | - | 71 W/m² | - |
| 1778098383 | 3.89° C | 57% | 1011.9 hPa | 0 mm | - | 92 W/m² | - |
| 1778098080 | 3.33° C | 56% | 1011.8 hPa | 0 mm | - | 154 W/m² | - |
| 1778097775 | 3.89° C | 56% | 1011.9 hPa | 0 mm | - | 157 W/m² | - |
| 1778097472 | 3.33° C | 58% | 1011.9 hPa | 0 mm | - | 165 W/m² | - |
| 1778097169 | 2.78° C | 62% | 1011.9 hPa | 0 mm | - | 130 W/m² | - |
| 1778096866 | 3.33° C | 59% | 1012 hPa | 0 mm | - | 122 W/m² | - |
* Rain latest hour (hover to see other rain measurements)
** Current wind speed in m/s (hover to see current wind gust speed)